Weather History for Taylorville, IL

Change the Weather History Date:

Friday, September 6, 2013

  Actual Average (KSPI) Record (KSPI)
Temperature  
Mean Temperature 76 °F 71 °F  
Max Temperature 91 °F 82 °F 100 °F (1954)
Min Temperature 60 °F 59 °F 40 °F (1962)
Degree Days  
Heating Degree Days 0 1  
Month to date heating degree days 3  
Since 1 July heating degree days 8  
Cooling Degree Days 10 6  
Month to date cooling degree days 40  
Year to date cooling degree days 1010  
Growing Degree Days 26 (Base 50)    
Moisture  
Dew Point 64 °F    
Average Humidity 74    
Maximum Humidity 100    
Minimum Humidity 38    
Precipitation  
Precipitation 0.00 in 0.10 in 0.99 in (1898)
Month to date precipitation 0.57  
Year to date precipitation 26.22  
Snow  
Snow 0.00 in 0.00 in 0.00 in ()
Month to date snowfall 0.0  
Since 1 July snowfall 0.0  
Since 1 September snowfall 0.0  
Snow Depth -    
Sea Level Pressure  
Sea Level Pressure 30.13 in    
Wind  
Wind Speed 2 mph (SSE)    
Max Wind Speed 9 mph    
Max Gust Speed -    
Visibility 10 miles    
Events      
T = Trace of Precipitation, MM = Missing Value Source: NWS Daily Summary

Daily Weather History Graph

Daily Weather History Graph

Search for Another Location

Airport:

Trip Planner

Search our weather history database for the weather conditions in past years. The results will help you decide how hot, cold, wet, or windy it might be!

Date:

Astronomy

Sep. 06, 2013 Rise Set
Actual Time 6:30 AM CDT 7:19 PM CDT
Civil Twilight 6:03 AM CDT 7:47 PM CDT
Nautical Twilight 5:30 AM CDT 8:19 PM CDT
Astronomical Twilight 4:57 AM CDT 8:52 PM CDT
Moon 7:42 AM CDT (9/6) 7:44 PM CDT (9/6)
Length of Visible Light 13h 44m
Length of Day
12h 49m
New Moon, 2% of the Moon is Illuminated
Sep 6
New Moon
Sep 12
First Quarter
Sep 19
Full
Sep 26
Last Quarter
Oct 4
New

Hourly Weather History & Observations

Time (CDT) Temp. Heat Index Dew Point Humidity Pressure Visibility Wind Dir Wind Speed Gust Speed Precip Events Conditions
12:15 AM 66.2 °F - 64.4 °F 94% 30.17 in 10.0 mi Calm Calm - N/A   Clear
12:35 AM 64.4 °F - 64.4 °F 100% 30.18 in 10.0 mi North 4.6 mph - N/A   Clear
12:55 AM 66.2 °F - 64.4 °F 94% 30.18 in 10.0 mi Calm Calm - N/A   Clear
1:15 AM 64.4 °F - 64.4 °F 100% 30.18 in 10.0 mi Calm Calm - N/A   Clear
1:35 AM 64.4 °F - 64.4 °F 100% 30.18 in 10.0 mi Calm Calm - N/A   Clear
1:55 AM 64.4 °F - 62.6 °F 94% 30.17 in 10.0 mi Calm Calm - N/A   Clear
2:15 AM 62.6 °F - 62.6 °F 100% 30.17 in 10.0 mi Calm Calm - N/A   Clear
2:35 AM 64.4 °F - 62.6 °F 94% 30.17 in 10.0 mi Calm Calm - N/A   Clear
2:55 AM 62.6 °F - 62.6 °F 100% 30.17 in 10.0 mi Calm Calm - N/A   Clear
3:15 AM 62.6 °F - 62.6 °F 100% 30.17 in 10.0 mi Calm Calm - N/A   Clear
3:35 AM 64.4 °F - 64.4 °F 100% 30.17 in 10.0 mi Calm Calm - N/A   Clear
3:55 AM 64.4 °F - 62.6 °F 94% 30.16 in 10.0 mi Calm Calm - N/A   Clear
4:15 AM 62.6 °F - 62.6 °F 100% 30.16 in 10.0 mi Calm Calm - N/A   Clear
4:35 AM 62.6 °F - 62.6 °F 100% 30.16 in 10.0 mi Calm Calm - N/A   Clear
4:55 AM 62.6 °F - 62.6 °F 100% 30.17 in 7.0 mi Calm Calm - N/A   Clear
5:15 AM 60.8 °F - 60.8 °F 100% 30.16 in 10.0 mi Calm Calm - N/A   Clear
5:35 AM 62.6 °F - 62.6 °F 100% 30.16 in 10.0 mi Calm Calm - N/A   Clear
5:55 AM 60.8 °F - 60.8 °F 100% 30.17 in 5.0 mi Calm Calm - N/A   Clear
6:15 AM 60.8 °F - 60.8 °F 100% 30.18 in 7.0 mi Calm Calm - N/A   Clear
6:35 AM 60.8 °F - 60.8 °F 100% 30.19 in 7.0 mi Calm Calm - N/A   Clear
6:55 AM 62.6 °F - 62.6 °F 100% 30.18 in 5.0 mi Calm Calm - N/A   Clear
7:15 AM 64.4 °F - 64.4 °F 100% 30.18 in 5.0 mi Calm Calm - N/A   Clear
7:35 AM 66.2 °F - 66.2 °F 100% 30.19 in 7.0 mi Calm Calm - N/A   Clear
7:55 AM 68.0 °F - 68.0 °F 100% 30.19 in 10.0 mi Calm Calm - N/A   Clear
8:15 AM 69.8 °F - 68.0 °F 94% 30.19 in 10.0 mi Calm Calm - N/A   Clear
8:35 AM 73.4 °F - 68.0 °F 83% 30.18 in 10.0 mi Calm Calm - N/A   Clear
8:55 AM 75.2 °F - 68.0 °F 78% 30.19 in 10.0 mi Calm Calm - N/A   Clear
9:15 AM 77.0 °F - 66.2 °F 69% 30.19 in 10.0 mi South 3.5 mph - N/A   Clear
9:35 AM 80.6 °F 82.7 °F 66.2 °F 61% 30.19 in 10.0 mi South 3.5 mph - N/A   Clear
9:55 AM 82.4 °F 84.6 °F 66.2 °F 58% 30.19 in 10.0 mi South 3.5 mph - N/A   Clear
10:15 AM 82.4 °F 84.6 °F 66.2 °F 58% 30.19 in 10.0 mi Calm Calm - N/A   Clear
10:35 AM 84.2 °F 86.6 °F 66.2 °F 55% 30.19 in 10.0 mi Calm Calm - N/A   Clear
10:55 AM 84.2 °F 86.6 °F 66.2 °F 55% 30.19 in 10.0 mi SSE 4.6 mph - N/A   Clear
11:15 AM 86.0 °F 87.3 °F 64.4 °F 48% 30.18 in 10.0 mi SSE 6.9 mph - N/A   Clear
11:35 AM 86.0 °F 88.2 °F 66.2 °F 51% 30.18 in 10.0 mi SE 5.8 mph - N/A   Clear
11:55 AM 87.8 °F 89.4 °F 64.4 °F 46% 30.17 in 10.0 mi SE 5.8 mph - N/A   Clear
12:15 PM 87.8 °F 90.4 °F 66.2 °F 49% 30.16 in 10.0 mi South 5.8 mph - N/A   Clear
12:35 PM 87.8 °F 89.4 °F 64.4 °F 46% 30.15 in 10.0 mi South 5.8 mph - N/A   Clear
12:55 PM 89.6 °F 91.1 °F 64.4 °F 43% 30.14 in 10.0 mi SSW 4.6 mph - N/A   Clear
1:15 PM 89.6 °F 92.2 °F 66.2 °F 46% 30.14 in 10.0 mi SE 4.6 mph - N/A   Clear
1:35 PM 89.6 °F 91.1 °F 64.4 °F 43% 30.13 in 10.0 mi South 9.2 mph - N/A   Clear
1:55 PM 89.6 °F 91.1 °F 64.4 °F 43% 30.12 in 10.0 mi Calm Calm - N/A   Clear
2:15 PM 91.4 °F 93.2 °F 64.4 °F 41% 30.12 in 10.0 mi SSW 9.2 mph - N/A   Clear
2:35 PM 89.6 °F 91.1 °F 64.4 °F 43% 30.11 in 10.0 mi Calm Calm - N/A   Clear
2:55 PM 91.4 °F 93.2 °F 64.4 °F 41% 30.10 in 10.0 mi SSE 5.8 mph - N/A   Clear
3:15 PM 91.4 °F 92.1 °F 62.6 °F 38% 30.10 in 10.0 mi SE 3.5 mph - N/A   Clear
3:35 PM 91.4 °F 93.2 °F 64.4 °F 41% 30.09 in 10.0 mi SSW 5.8 mph - N/A   Clear
3:55 PM 91.4 °F 92.1 °F 62.6 °F 38% 30.08 in 10.0 mi SSW 6.9 mph - N/A   Clear
4:15 PM 89.6 °F 90.1 °F 62.6 °F 40% 30.08 in 10.0 mi SSE 3.5 mph - N/A   Clear
4:35 PM 89.6 °F 91.1 °F 64.4 °F 43% 30.08 in 10.0 mi South 4.6 mph - N/A   Clear
4:55 PM 89.6 °F 91.1 °F 64.4 °F 43% 30.07 in 10.0 mi South 4.6 mph - N/A   Clear
5:15 PM 89.6 °F 91.1 °F 64.4 °F 43% 30.07 in 10.0 mi South 5.8 mph - N/A   Clear
5:35 PM 87.8 °F 89.4 °F 64.4 °F 46% 30.06 in 10.0 mi South 4.6 mph - N/A   Clear
5:55 PM 87.8 °F 89.4 °F 64.4 °F 46% 30.06 in 10.0 mi South 3.5 mph - N/A   Clear
6:15 PM 86.0 °F 87.3 °F 64.4 °F 48% 30.06 in 10.0 mi South 3.5 mph - N/A   Clear
6:35 PM 82.4 °F 84.6 °F 66.2 °F 58% 30.05 in 10.0 mi SSE 4.6 mph - N/A   Clear
6:55 PM 80.6 °F 82.7 °F 66.2 °F 61% 30.06 in 10.0 mi South 3.5 mph - N/A   Clear
7:15 PM 77.0 °F - 66.2 °F 69% 30.06 in 10.0 mi SSE 4.6 mph - N/A   Clear
7:35 PM 75.2 °F - 64.4 °F 69% 30.05 in 10.0 mi SSE 4.6 mph - N/A   Clear
7:55 PM 73.4 °F - 64.4 °F 73% 30.06 in 10.0 mi South 3.5 mph - N/A   Clear
8:15 PM 71.6 °F - 64.4 °F 78% 30.06 in 10.0 mi Calm Calm - N/A   Clear
8:35 PM 71.6 °F - 64.4 °F 78% 30.06 in 10.0 mi South 3.5 mph - N/A   Clear
8:55 PM 71.6 °F - 64.4 °F 78% 30.06 in 10.0 mi SSE 3.5 mph - N/A   Clear
9:15 PM 69.8 °F - 64.4 °F 83% 30.06 in 10.0 mi Calm Calm - N/A   Clear
9:35 PM 69.8 °F - 64.4 °F 83% 30.06 in 10.0 mi Calm Calm - N/A   Clear
9:55 PM 68.0 °F - 64.4 °F 88% 30.06 in 10.0 mi Calm Calm - N/A   Clear
10:15 PM 66.2 °F - 64.4 °F 94% 30.06 in 10.0 mi Calm Calm - N/A   Clear
10:35 PM 68.0 °F - 64.4 °F 88% 30.06 in 10.0 mi Calm Calm - N/A   Clear
10:55 PM 66.2 °F - 66.2 °F 100% 30.05 in 10.0 mi Calm Calm - N/A   Clear
11:15 PM 66.2 °F - 64.4 °F 94% 30.05 in 10.0 mi Calm Calm - N/A   Clear
11:35 PM 68.0 °F - 66.2 °F 94% 30.05 in 10.0 mi SSE 5.8 mph - N/A   Clear
11:55 PM 69.8 °F - 66.2 °F 88% 30.04 in 10.0 mi SSE 3.5 mph - N/A   Clear